Weather History for Clinton-Sherman, OK

Change the Weather History Date:

Thursday, November 4, 2010

  Actual Average Record
Temperature  
Mean Temperature 51 °F -  
Max Temperature 61 °F 60 °F 88 °F (2005)
Min Temperature 41 °F 42 °F 30 °F (2011)
Degree Days  
Heating Degree Days 14    
Growing Degree Days 1 (Base 50)    
Moisture  
Dew Point 21 °F    
Average Humidity 35    
Maximum Humidity 52    
Minimum Humidity 16    
Precipitation  
Precipitation 0.00 in - - ()
Sea Level Pressure  
Sea Level Pressure 30.32 in    
Wind  
Wind Speed 13 mph (NNW)    
Max Wind Speed 22 mph    
Max Gust Speed 30 mph    
Visibility 10 miles    
Events      
Averages and records for this station are not official NWS values.
T = Trace of Precipitation, MM = Missing Value Source: NWS Daily Summary

Daily Weather History Graph

Daily Weather History Graph

Search for Another Location

Airport:

Trip Planner

Search our weather history database for the weather conditions in past years. The results will help you decide how hot, cold, wet, or windy it might be!

Date:

Astronomy

Nov. 04, 2010 Rise Set
Actual Time 8:01 AM CDT 6:39 PM CDT
Civil Twilight 7:34 AM CDT 7:05 PM CDT
Nautical Twilight 7:04 AM CDT 7:35 PM CDT
Astronomical Twilight 6:34 AM CDT 8:05 PM CDT
Moon 6:16 AM CDT (11/4) 5:24 PM CDT (11/4)
Length of Visible Light 11h 30m
Length of Day
10h 37m
Waning Crescent, 3% of the Moon is Illuminated
Nov 4
Waning Crescent
Nov 5
New
Nov 13
First Quarter
Nov 21
Full
Nov 28
Last Quarter

Hourly Weather History & Observations

Time (CDT) Temp. Windchill Dew Point Humidity Pressure Visibility Wind Dir Wind Speed Gust Speed Precip Events Conditions
12:53 AM 50.0 °F - 30.0 °F 46% 30.31 in 10.0 mi North 11.5 mph - N/A   Clear
1:53 AM 46.0 °F 41.4 °F 28.9 °F 51% 30.32 in 10.0 mi NNW 9.2 mph - N/A   Clear
2:53 AM 46.9 °F - 28.0 °F 48% 30.33 in 10.0 mi NNW 11.5 mph - N/A   Clear
3:53 AM 45.0 °F 39.3 °F 28.0 °F 52% 30.33 in 10.0 mi North 11.5 mph - N/A   Clear
4:53 AM 44.1 °F 37.7 °F 26.1 °F 49% 30.33 in 10.0 mi NNW 12.7 mph - N/A   Clear
5:53 AM 43.0 °F 36.4 °F 25.0 °F 49% 30.35 in 10.0 mi NNW 12.7 mph - N/A   Clear
6:53 AM 42.1 °F 34.9 °F 25.0 °F 51% 30.36 in 10.0 mi NNW 13.8 mph - N/A   Clear
7:53 AM 41.0 °F 32.5 °F 24.1 °F 51% 30.38 in 10.0 mi NNW 17.3 mph - N/A   Clear
8:53 AM 43.0 °F 35.4 °F 24.1 °F 47% 30.40 in 10.0 mi NNW 16.1 mph - N/A   Clear
9:53 AM 46.9 °F - 23.0 °F 39% 30.41 in 10.0 mi NNW 18.4 mph - N/A   Clear
10:53 AM 51.1 °F - 24.1 °F 35% 30.40 in 10.0 mi NNW 17.3 mph - N/A   Clear
11:53 AM 54.0 °F - 24.1 °F 31% 30.39 in 10.0 mi NNW 18.4 mph 25.3 mph N/A   Clear
12:53 PM 57.0 °F - 21.0 °F 25% 30.35 in 10.0 mi NNW 18.4 mph 26.5 mph N/A   Clear
1:53 PM 59.0 °F - 18.0 °F 20% 30.32 in 10.0 mi NNW 18.4 mph - N/A   Clear
2:53 PM 60.1 °F - 15.1 °F 17% 30.28 in 10.0 mi North 21.9 mph 27.6 mph N/A   Clear
3:53 PM 61.0 °F - 14.0 °F 16% 30.25 in 10.0 mi NNW 19.6 mph 28.8 mph N/A   Clear
4:53 PM 60.1 °F - 12.9 °F 16% 30.24 in 10.0 mi NNW 18.4 mph 29.9 mph N/A   Clear
5:53 PM 59.0 °F - 12.0 °F 16% 30.23 in 10.0 mi North 12.7 mph - N/A   Clear
6:53 PM 53.1 °F - 15.1 °F 22% 30.25 in 9.0 mi North 10.4 mph - N/A   Clear
7:53 PM 46.9 °F - 17.1 °F 30% 30.27 in 10.0 mi NNW 5.8 mph - N/A   Clear
8:53 PM 44.1 °F 39.5 °F 17.1 °F 34% 30.27 in 10.0 mi NW 8.1 mph - N/A   Clear
9:53 PM 44.1 °F 38.6 °F 18.0 °F 35% 30.28 in 10.0 mi NNW 10.4 mph - N/A   Clear
10:53 PM 43.0 °F 38.8 °F 17.1 °F 35% 30.29 in 10.0 mi NNW 6.9 mph - N/A   Clear
11:53 PM 43.0 °F 37.7 °F 17.1 °F 35% 30.29 in 10.0 mi NNW 9.2 mph - N/A   Clear